QPF
0.02 0.01 0.00 0.00 0.02 0.03 0.02 0.00 0.00 0.00 0.00 0.00 0.00 0.00 0.01 0.02 0.04 0.05 0.03 0.01 0.02 0.02 0.01 0.01 0.02 0.03 0.04 0.05 0.07 0.07 0.05 0.03 0.04 0.03 0.03 0.04 0.04 0.05 0.06 0.06 0.06 0.06 0.05 0.04 0.04 0.04 0.05 0.05 0.06
0.01 0.00 0.00 0.01 0.03 0.03 0.02 0.01 0.00 0.00 0.00 0.00 0.00 0.00 0.01 0.03 0.02 0.03 0.04 0.03 0.01 0.01 0.01 0.00 0.01 0.03 0.04 0.04 0.05 0.05 0.04 0.03 0.03 0.02 0.03 0.03 0.04 0.04 0.04 0.05 0.06 0.06 0.05 0.05 0.05 0.04 0.04 0.04 0.04
0.00 0.00 0.01 0.02 0.03 0.03 0.03 0.01 0.01 0.00 0.00 0.00 0.00 0.00 0.02 0.04 0.03 0.04 0.04 0.02 0.01 0.01 0.01 0.00 0.01 0.02 0.03 0.03 0.04 0.03 0.02 0.02 0.02 0.02 0.02 0.02 0.03 0.04 0.04 0.05 0.05 0.05 0.05 0.05 0.04 0.03 0.03 0.03 0.03
0.00 0.00 0.01 0.02 0.03 0.01 0.01 0.01 0.02 0.00 0.00 0.01 0.00 0.02 0.03 0.03 0.03 0.03 0.01 0.01 0.01 0.01 0.01 0.01 0.02 0.02 0.02 0.02 0.03 0.02 0.02 0.02 0.02 0.02 0.02 0.03 0.04 0.05 0.07 0.07 0.06 0.06 0.04 0.03 0.02 0.02 0.03 0.03 0.03
0.00 0.01 0.01 0.02 0.02 0.01 0.01 0.01 0.01 0.00 0.00 0.01 0.01 0.01 0.02 0.02 0.03 0.02 0.01 0.01 0.01 0.01 0.01 0.00 0.01 0.02 0.03 0.02 0.02 0.02 0.02 0.02 0.02 0.02 0.01 0.02 0.05 0.12 0.11 0.07 0.07 0.06 0.05 0.04 0.03 0.03 0.03 0.03 0.03
0.01 0.01 0.02 0.02 0.03 0.01 0.00 0.00 0.00 0.00 0.00 0.00 0.01 0.01 0.02 0.03 0.01 0.00 0.00 0.00 0.01 0.01 0.01 0.01 0.01 0.01 0.02 0.02 0.02 0.02 0.02 0.02 0.02 0.02 0.02 0.02 0.03 0.08 0.08 0.07 0.06 0.06 0.05 0.06 0.06 0.05 0.04 0.03 0.04
0.01 0.01 0.01 0.01 0.02 0.01 0.00 0.00 0.00 0.00 0.00 0.00 0.00 0.01 0.02 0.03 0.01 0.00 0.00 0.01 0.01 0.01 0.01 0.02 0.02 0.01 0.01 0.02 0.01 0.01 0.01 0.02 0.02 0.02 0.02 0.02 0.02 0.02 0.03 0.04 0.05 0.06 0.06 0.07 0.07 0.05 0.04 0.04 0.04
0.01 0.01 0.01 0.01 0.02 0.02 0.01 0.00 0.00 0.00 0.00 0.00 0.00 0.01 0.01 0.01 0.00 0.00 0.00 0.00 0.01 0.01 0.01 0.02 0.02 0.02 0.01 0.01 0.01 0.01 0.01 0.01 0.02 0.01 0.01 0.02 0.03 0.03 0.03 0.04 0.04 0.05 0.06 0.07 0.07 0.06 0.05 0.04 0.04
0.00 0.01 0.01 0.01 0.02 0.02 0.01 0.00 0.00 0.00 0.00 0.00 0.00 0.00 0.00 0.00 0.00 0.00 0.00 0.00 0.01 0.01 0.01 0.02 0.02 0.02 0.02 0.02 0.01 0.01 0.01 0.01 0.01 0.01 0.01 0.02 0.04 0.05 0.04 0.04 0.04 0.04 0.03 0.04 0.04 0.04 0.03 0.03 0.03
0.00 0.01 0.01 0.01 0.00 0.00 0.00 0.00 0.00 0.00 0.00 0.00 0.00 0.00 0.00 0.00 0.00 0.00 0.01 0.01 0.01 0.01 0.01 0.02 0.02 0.02 0.03 0.02 0.02 0.02 0.01 0.01 0.01 0.01 0.01 0.02 0.04 0.05 0.03 0.04 0.04 0.03 0.04 0.03 0.03 0.03 0.04 0.03 0.03
0.00 0.01 0.01 0.00 0.00 0.00 0.00 0.00 0.00 0.00 0.00 0.00 0.00 0.00 0.00 0.00 0.00 0.00 0.01 0.00 0.01 0.00 0.00 0.01 0.01 0.01 0.01 0.01 0.01 0.01 0.01 0.01 0.01 0.02 0.03 0.04 0.04 0.04 0.04 0.04 0.04 0.03 0.03 0.03 0.03 0.05 0.04 0.04 0.04
0.00 0.00 0.00 0.00 0.00 0.00 0.00 0.00 0.00 0.00 0.00 0.00 0.00 0.00 0.00 0.00 0.00 0.00 0.00 0.00 0.00 0.00 0.00 0.00 0.01 0.01 0.01 0.00 0.01 0.01 0.00 0.01 0.01 0.04 0.09 0.09 0.07 0.04 0.03 0.03 0.02 0.03 0.03 0.03 0.04 0.05 0.04 0.04 0.04
0.00 0.00 0.00 0.00 0.00 0.01 0.01 0.00 0.00 0.00 0.00 0.00 0.00 0.00 0.00 0.00 0.00 0.00 0.00 0.00 0.00 0.00 0.00 0.00 0.00 0.00 0.01 0.01 0.01 0.00 0.01 0.01 0.02 0.05 0.12 0.16 0.13 0.06 0.02 0.02 0.02 0.03 0.03 0.03 0.03 0.04 0.04 0.04 0.03
0.00 0.00 0.00 0.00 0.00 0.01 0.01 0.00 0.00 0.00 0.01 0.01 0.01 0.01 0.01 0.00 0.00 0.00 0.01 0.01 0.01 0.01 0.00 0.00 0.00 0.00 0.00 0.01 0.02 0.01 0.01 0.01 0.02 0.03 0.07 0.14 0.19 0.10 0.03 0.02 0.02 0.02 0.03 0.03 0.03 0.04 0.04 0.04 0.03
0.00 0.00 0.00 0.00 0.00 0.00 0.00 0.00 0.00 0.00 0.01 0.01 0.01 0.02 0.02 0.01 0.01 0.00 0.01 0.01 0.02 0.01 0.01 0.00 0.00 0.00 0.00 0.01 0.03 0.02 0.01 0.01 0.01 0.02 0.04 0.07 0.11 0.12 0.05 0.03 0.04 0.03 0.03 0.03 0.04 0.02 0.03 0.03 0.02
0.00 0.00 0.01 0.01 0.00 0.01 0.00 0.00 0.00 0.00 0.01 0.01 0.01 0.02 0.02 0.02 0.01 0.00 0.00 0.01 0.01 0.01 0.01 0.00 0.00 0.00 0.01 0.01 0.02 0.02 0.01 0.01 0.02 0.02 0.04 0.07 0.07 0.07 0.06 0.04 0.04 0.04 0.03 0.04 0.04 0.03 0.03 0.03 0.03
0.00 0.01 0.01 0.01 0.01 0.01 0.01 0.01 0.01 0.00 0.00 0.00 0.01 0.01 0.01 0.01 0.01 0.00 0.00 0.00 0.00 0.00 0.00 0.01 0.00 0.00 0.00 0.01 0.01 0.02 0.02 0.02 0.02 0.02 0.04 0.06 0.08 0.06 0.05 0.05 0.04 0.03 0.03 0.03 0.02 0.03 0.04 0.04 0.03
0.00 0.00 0.00 0.01 0.00 0.00 0.01 0.00 0.00 0.00 0.00 0.00 0.00 0.01 0.01 0.01 0.00 0.00 0.00 0.00 0.00 0.00 0.00 0.01 0.01 0.01 0.01 0.01 0.01 0.02 0.02 0.02 0.01 0.01 0.01 0.03 0.05 0.05 0.05 0.05 0.04 0.02 0.02 0.02 0.02 0.03 0.03 0.03 0.02
0.00 0.00 0.01 0.00 0.00 0.00 0.00 0.00 0.00 0.00 0.00 0.00 0.00 0.00 0.00 0.00 0.00 0.00 0.00 0.00 0.00 0.00 0.00 0.01 0.01 0.01 0.01 0.01 0.02 0.03 0.02 0.02 0.02 0.02 0.01 0.02 0.03 0.05 0.07 0.05 0.03 0.02 0.02 0.01 0.02 0.03 0.02 0.02 0.02
0.00 0.00 0.00 0.00 0.00 0.00 0.00 0.00 0.00 0.00 0.00 0.00 0.00 0.00 0.00 0.00 0.00 0.00 0.00 0.00 0.00 0.00 0.00 0.00 0.01 0.01 0.01 0.02 0.02 0.02 0.02 0.02 0.02 0.02 0.01 0.01 0.02 0.04 0.08 0.08 0.05 0.03 0.03 0.02 0.02 0.02 0.02 0.01 0.01
0.00 0.00 0.00 0.00 0.00 0.00 0.00 0.00 0.00 0.00 0.00 0.00 0.00 0.00 0.00 0.00 0.00 0.00 0.00 0.00 0.00 0.00 0.00 0.00 0.00 0.00 0.01 0.03 0.03 0.02 0.03 0.03 0.03 0.02 0.02 0.02 0.02 0.03 0.06 0.09 0.07 0.06 0.03 0.02 0.02 0.02 0.02 0.02 0.02
0.00 0.00 0.00 0.00 0.00 0.00 0.00 0.00 0.00 0.00 0.00 0.00 0.00 0.00 0.00 0.00 0.00 0.00 0.00 0.00 0.00 0.00 0.00 0.00 0.00 0.00 0.01 0.02 0.03 0.03 0.02 0.02 0.03 0.04 0.02 0.02 0.03 0.05 0.06 0.06 0.08 0.06 0.03 0.02 0.02 0.02 0.03 0.03 0.02
0.00 0.00 0.00 0.00 0.00 0.01 0.00 0.01 0.00 0.00 0.00 0.00 0.00 0.00 0.00 0.00 0.00 0.00 0.01 0.01 0.00 0.00 0.00 0.00 0.00 0.01 0.01 0.01 0.02 0.02 0.02 0.02 0.02 0.02 0.03 0.02 0.02 0.03 0.06 0.06 0.08 0.06 0.03 0.02 0.01 0.02 0.03 0.02 0.02
0.00 0.00 0.00 0.01 0.01 0.01 0.00 0.01 0.01 0.00 0.00 0.00 0.00 0.00 0.00 0.00 0.00 0.01 0.01 0.01 0.02 0.01 0.00 0.00 0.00 0.00 0.00 0.01 0.01 0.01 0.01 0.02 0.02 0.03 0.04 0.03 0.02 0.03 0.04 0.06 0.06 0.06 0.04 0.02 0.01 0.01 0.02 0.02 0.02
0.00 0.01 0.02 0.02 0.02 0.01 0.00 0.00 0.01 0.00 0.00 0.00 0.00 0.00 0.00 0.00 0.00 0.01 0.01 0.01 0.04 0.04 0.01 0.00 0.00 0.00 0.01 0.01 0.00 0.01 0.01 0.01 0.01 0.03 0.04 0.04 0.04 0.03 0.04 0.04 0.05 0.05 0.04 0.02 0.01 0.01 0.02 0.02 0.02
0.01 0.01 0.02 0.03 0.02 0.02 0.01 0.01 0.00 0.00 0.00 0.00 0.00 0.00 0.00 0.00 0.00 0.00 0.01 0.01 0.02 0.05 0.04 0.01 0.00 0.00 0.01 0.01 0.01 0.01 0.01 0.01 0.01 0.02 0.02 0.03 0.04 0.04 0.05 0.04 0.03 0.04 0.04 0.03 0.02 0.01 0.01 0.02 0.02
0.01 0.01 0.01 0.01 0.01 0.02 0.01 0.01 0.01 0.00 0.00 0.00 0.00 0.00 0.00 0.00 0.00 0.00 0.00 0.01 0.01 0.02 0.03 0.02 0.01 0.02 0.02 0.02 0.02 0.02 0.01 0.01 0.01 0.01 0.01 0.01 0.02 0.03 0.05 0.04 0.04 0.03 0.04 0.04 0.03 0.02 0.02 0.02 0.02
0.01 0.01 0.01 0.02 0.02 0.02 0.02 0.01 0.00 0.00 0.00 0.00 0.00 0.00 0.00 0.00 0.00 0.00 0.00 0.01 0.01 0.01 0.02 0.02 0.02 0.02 0.02 0.02 0.03 0.03 0.02 0.02 0.01 0.00 0.01 0.01 0.01 0.01 0.03 0.04 0.04 0.04 0.03 0.04 0.04 0.04 0.02 0.02 0.02
0.01 0.01 0.01 0.02 0.02 0.03 0.02 0.01 0.00 0.00 0.00 0.00 0.00 0.00 0.00 0.00 0.00 0.00 0.00 0.00 0.01 0.01 0.01 0.01 0.01 0.02 0.02 0.02 0.02 0.03 0.03 0.02 0.02 0.01 0.01 0.01 0.01 0.01 0.02 0.03 0.04 0.04 0.04 0.03 0.04 0.03 0.04 0.03 0.03
0.01 0.01 0.01 0.03 0.03 0.02 0.02 0.01 0.00 0.00 0.00 0.00 0.00 0.00 0.00 0.00 0.00 0.00 0.00 0.00 0.00 0.00 0.00 0.00 0.00 0.01 0.01 0.02 0.02 0.02 0.02 0.02 0.01 0.01 0.00 0.00 0.01 0.01 0.01 0.02 0.03 0.04 0.05 0.04 0.03 0.03 0.03 0.04 0.04
MSLP
1001.59 1002.39 1003.64 1005.20 1006.90 1008.52 1009.87 1010.83 1011.35 1011.48 1011.36 1011.15 1011.01 1011.05 1011.28 1011.66 1012.09 1012.41 1012.51 1012.32 1011.85 1011.19 1010.44 1009.74 1009.20 1008.88 1008.75 1008.76 1008.82 1008.83 1008.76 1008.57 1008.30 1008.01 1007.76 1007.61 1007.54 1007.55 1007.58 1007.58 1007.50 1007.34 1007.12 1006.89 1006.73 1006.68 1006.77 1007.01 1007.35
1002.15 1003.24 1004.71 1006.40 1008.12 1009.65 1010.83 1011.58 1011.88 1011.81 1011.54 1011.23 1011.02 1011.02 1011.22 1011.57 1011.96 1012.24 1012.32 1012.13 1011.72 1011.15 1010.53 1009.99 1009.61 1009.43 1009.41 1009.48 1009.56 1009.57 1009.47 1009.24 1008.94 1008.63 1008.37 1008.20 1008.11 1008.09 1008.08 1008.03 1007.90 1007.69 1007.44 1007.20 1007.01 1006.94 1007.01 1007.20 1007.48
1002.91 1004.24 1005.86 1007.59 1009.24 1010.61 1011.59 1012.10 1012.19 1011.96 1011.58 1011.20 1010.97 1010.95 1011.14 1011.45 1011.78 1012.01 1012.04 1011.85 1011.47 1010.99 1010.50 1010.11 1009.89 1009.84 1009.92 1010.05 1010.16 1010.17 1010.05 1009.81 1009.50 1009.19 1008.93 1008.76 1008.67 1008.63 1008.59 1008.50 1008.34 1008.10 1007.84 1007.59 1007.40 1007.33 1007.37 1007.52 1007.73
1003.84 1005.35 1007.03 1008.72 1010.23 1011.40 1012.13 1012.43 1012.34 1011.99 1011.54 1011.16 1010.94 1010.93 1011.11 1011.38 1011.65 1011.80 1011.77 1011.55 1011.19 1010.77 1010.39 1010.13 1010.05 1010.11 1010.28 1010.47 1010.60 1010.61 1010.49 1010.25 1009.96 1009.67 1009.44 1009.29 1009.21 1009.17 1009.12 1009.01 1008.83 1008.59 1008.32 1008.08 1007.90 1007.83 1007.85 1007.96 1008.12
1004.91 1006.49 1008.16 1009.73 1011.04 1011.98 1012.48 1012.58 1012.35 1011.94 1011.50 1011.16 1010.99 1011.02 1011.19 1011.42 1011.61 1011.67 1011.56 1011.30 1010.94 1010.57 1010.29 1010.14 1010.16 1010.33 1010.56 1010.78 1010.92 1010.94 1010.82 1010.60 1010.33 1010.09 1009.91 1009.80 1009.75 1009.73 1009.68 1009.57 1009.39 1009.15 1008.88 1008.65 1008.49 1008.41 1008.43 1008.51 1008.63
1006.02 1007.61 1009.18 1010.57 1011.65 1012.35 1012.64 1012.59 1012.29 1011.88 1011.49 1011.23 1011.15 1011.22 1011.40 1011.59 1011.70 1011.67 1011.48 1011.17 1010.81 1010.48 1010.26 1010.21 1010.32 1010.54 1010.82 1011.05 1011.19 1011.20 1011.09 1010.89 1010.66 1010.47 1010.35 1010.29 1010.29 1010.30 1010.26 1010.16 1009.98 1009.74 1009.49 1009.27 1009.11 1009.04 1009.06 1009.12 1009.20
1007.11 1008.62 1010.03 1011.20 1012.04 1012.51 1012.63 1012.48 1012.16 1011.81 1011.53 1011.39 1011.40 1011.53 1011.72 1011.87 1011.91 1011.79 1011.54 1011.19 1010.83 1010.54 1010.39 1010.40 1010.57 1010.83 1011.12 1011.35 1011.47 1011.46 1011.35 1011.17 1010.98 1010.84 1010.77 1010.77 1010.81 1010.85 1010.83 1010.74 1010.56 1010.33 1010.08 1009.87 1009.72 1009.66 1009.67 1009.73 1009.79
1008.08 1009.46 1010.67 1011.61 1012.23 1012.51 1012.50 1012.30 1012.01 1011.75 1011.60 1011.59 1011.71 1011.90 1012.10 1012.21 1012.19 1012.02 1011.71 1011.35 1011.01 1010.76 1010.66 1010.73 1010.94 1011.22 1011.49 1011.70 1011.79 1011.76 1011.63 1011.45 1011.30 1011.20 1011.18 1011.22 1011.30 1011.35 1011.35 1011.26 1011.08 1010.85 1010.61 1010.41 1010.28 1010.22 1010.24 1010.30 1010.37
1008.91 1010.12 1011.12 1011.84 1012.25 1012.39 1012.30 1012.10 1011.87 1011.73 1011.70 1011.82 1012.03 1012.27 1012.47 1012.57 1012.50 1012.29 1011.97 1011.62 1011.31 1011.12 1011.08 1011.19 1011.42 1011.70 1011.95 1012.11 1012.15 1012.08 1011.94 1011.76 1011.62 1011.55 1011.56 1011.63 1011.72 1011.78 1011.78 1011.68 1011.51 1011.29 1011.06 1010.87 1010.76 1010.72 1010.75 1010.83 1010.91
1009.58 1010.61 1011.41 1011.94 1012.19 1012.22 1012.09 1011.92 1011.78 1011.75 1011.84 1012.05 1012.33 1012.61 1012.81 1012.88 1012.80 1012.57 1012.27 1011.96 1011.71 1011.58 1011.59 1011.74 1011.98 1012.24 1012.45 1012.56 1012.55 1012.45 1012.27 1012.09 1011.96 1011.89 1011.91 1011.98 1012.06 1012.12 1012.11 1012.01 1011.84 1011.63 1011.43 1011.27 1011.18 1011.18 1011.24 1011.34 1011.45
1010.10 1010.97 1011.60 1011.97 1012.10 1012.07 1011.95 1011.83 1011.77 1011.83 1012.01 1012.29 1012.60 1012.88 1013.07 1013.13 1013.04 1012.83 1012.57 1012.32 1012.14 1012.08 1012.15 1012.32 1012.56 1012.79 1012.95 1013.01 1012.97 1012.82 1012.63 1012.44 1012.30 1012.23 1012.24 1012.30 1012.36 1012.40 1012.37 1012.27 1012.11 1011.93 1011.76 1011.64 1011.60 1011.64 1011.73 1011.87 1012.01
1010.54 1011.26 1011.75 1012.00 1012.07 1012.02 1011.92 1011.85 1011.86 1011.99 1012.22 1012.52 1012.83 1013.09 1013.26 1013.30 1013.22 1013.05 1012.85 1012.68 1012.57 1012.58 1012.69 1012.88 1013.11 1013.30 1013.43 1013.45 1013.37 1013.21 1013.01 1012.82 1012.68 1012.60 1012.59 1012.62 1012.65 1012.66 1012.61 1012.51 1012.38 1012.23 1012.11 1012.05 1012.06 1012.15 1012.29 1012.46 1012.63
1010.93 1011.53 1011.91 1012.09 1012.13 1012.08 1012.02 1012.01 1012.07 1012.23 1012.47 1012.76 1013.03 1013.25 1013.38 1013.42 1013.36 1013.24 1013.11 1013.01 1012.99 1013.05 1013.19 1013.39 1013.60 1013.76 1013.85 1013.85 1013.76 1013.60 1013.42 1013.24 1013.11 1013.03 1013.00 1013.00 1013.00 1012.97 1012.91 1012.81 1012.70 1012.60 1012.54 1012.54 1012.62 1012.76 1012.94 1013.13 1013.32
1011.30 1011.81 1012.12 1012.26 1012.30 1012.28 1012.26 1012.28 1012.38 1012.54 1012.75 1012.98 1013.20 1013.36 1013.46 1013.48 1013.45 1013.39 1013.33 1013.31 1013.36 1013.47 1013.63 1013.82 1014.01 1014.15 1014.22 1014.22 1014.14 1014.02 1013.88 1013.74 1013.63 1013.56 1013.51 1013.48 1013.44 1013.38 1013.30 1013.21 1013.13 1013.07 1013.07 1013.14 1013.27 1013.45 1013.66 1013.87 1014.06
1011.68 1012.11 1012.36 1012.49 1012.54 1012.55 1012.58 1012.63 1012.73 1012.87 1013.03 1013.19 1013.32 1013.43 1013.49 1013.51 1013.51 1013.50 1013.52 1013.58 1013.68 1013.82 1014.00 1014.18 1014.34 1014.47 1014.54 1014.56 1014.53 1014.47 1014.39 1014.31 1014.25 1014.19 1014.13 1014.07 1013.99 1013.91 1013.81 1013.72 1013.66 1013.65 1013.70 1013.82 1013.99 1014.20 1014.42 1014.63 1014.81
1012.04 1012.39 1012.61 1012.74 1012.82 1012.87 1012.93 1013.01 1013.10 1013.19 1013.28 1013.35 1013.40 1013.44 1013.46 1013.49 1013.52 1013.58 1013.67 1013.80 1013.95 1014.12 1014.29 1014.46 1014.62 1014.74 1014.83 1014.90 1014.94 1014.96 1014.97 1014.96 1014.94 1014.91 1014.84 1014.76 1014.65 1014.53 1014.41 1014.32 1014.28 1014.29 1014.38 1014.53 1014.72 1014.94 1015.16 1015.35 1015.49
1012.36 1012.64 1012.84 1012.98 1013.09 1013.19 1013.28 1013.37 1013.43 1013.46 1013.47 1013.45 1013.42 1013.39 1013.39 1013.42 1013.49 1013.61 1013.77 1013.95 1014.14 1014.33 1014.51 1014.68 1014.83 1014.96 1015.10 1015.22 1015.35 1015.46 1015.56 1015.64 1015.67 1015.66 1015.60 1015.49 1015.35 1015.19 1015.06 1014.96 1014.92 1014.95 1015.05 1015.21 1015.40 1015.61 1015.80 1015.96 1016.06
1012.60 1012.83 1013.02 1013.18 1013.34 1013.48 1013.60 1013.69 1013.71 1013.68 1013.59 1013.48 1013.36 1013.27 1013.24 1013.28 1013.39 1013.57 1013.79 1014.02 1014.25 1014.46 1014.65 1014.82 1014.98 1015.14 1015.32 1015.52 1015.73 1015.95 1016.14 1016.29 1016.37 1016.38 1016.32 1016.19 1016.02 1015.83 1015.67 1015.57 1015.52 1015.56 1015.66 1015.81 1015.99 1016.16 1016.32 1016.43 1016.51
1012.76 1012.96 1013.15 1013.35 1013.56 1013.76 1013.90 1013.98 1013.96 1013.85 1013.66 1013.45 1013.24 1013.09 1013.03 1013.07 1013.22 1013.44 1013.72 1014.00 1014.27 1014.50 1014.70 1014.88 1015.06 1015.26 1015.49 1015.76 1016.06 1016.36 1016.64 1016.85 1016.98 1017.00 1016.93 1016.79 1016.59 1016.39 1016.22 1016.10 1016.06 1016.09 1016.18 1016.32 1016.46 1016.60 1016.72 1016.79 1016.83
1012.84 1013.04 1013.27 1013.53 1013.80 1014.05 1014.21 1014.27 1014.20 1014.00 1013.71 1013.38 1013.08 1012.86 1012.77 1012.80 1012.97 1013.23 1013.55 1013.88 1014.18 1014.44 1014.66 1014.86 1015.06 1015.30 1015.59 1015.93 1016.30 1016.67 1017.01 1017.27 1017.43 1017.47 1017.40 1017.25 1017.04 1016.84 1016.66 1016.55 1016.51 1016.55 1016.63 1016.75 1016.86 1016.97 1017.04 1017.07 1017.09
1012.90 1013.12 1013.41 1013.75 1014.10 1014.39 1014.57 1014.60 1014.46 1014.16 1013.76 1013.32 1012.92 1012.62 1012.47 1012.49 1012.66 1012.95 1013.30 1013.66 1014.00 1014.29 1014.53 1014.76 1014.99 1015.27 1015.60 1015.99 1016.42 1016.85 1017.23 1017.53 1017.71 1017.76 1017.70 1017.55 1017.36 1017.17 1017.01 1016.93 1016.91 1016.96 1017.04 1017.14 1017.24 1017.31 1017.34 1017.35 1017.35
1012.97 1013.26 1013.63 1014.06 1014.48 1014.82 1015.01 1015.00 1014.78 1014.37 1013.85 1013.28 1012.77 1012.39 1012.18 1012.17 1012.34 1012.63 1013.01 1013.39 1013.75 1014.06 1014.33 1014.58 1014.84 1015.15 1015.52 1015.95 1016.42 1016.88 1017.29 1017.61 1017.81 1017.88 1017.84 1017.72 1017.56 1017.41 1017.30 1017.26 1017.28 1017.35 1017.45 1017.55 1017.63 1017.68 1017.69 1017.68 1017.66
1013.10 1013.47 1013.95 1014.47 1014.97 1015.34 1015.52 1015.46 1015.15 1014.63 1013.98 1013.30 1012.67 1012.20 1011.93 1011.87 1012.02 1012.32 1012.69 1013.09 1013.47 1013.80 1014.08 1014.35 1014.63 1014.96 1015.36 1015.81 1016.30 1016.78 1017.21 1017.55 1017.77 1017.87 1017.87 1017.79 1017.69 1017.60 1017.56 1017.58 1017.65 1017.77 1017.89 1018.00 1018.07 1018.11 1018.10 1018.08 1018.06
1013.31 1013.79 1014.36 1014.97 1015.52 1015.91 1016.06 1015.94 1015.55 1014.92 1014.15 1013.35 1012.62 1012.07 1011.73 1011.63 1011.75 1012.04 1012.41 1012.81 1013.18 1013.52 1013.81 1014.09 1014.38 1014.72 1015.12 1015.58 1016.08 1016.57 1017.02 1017.38 1017.62 1017.76 1017.81 1017.80 1017.77 1017.76 1017.80 1017.89 1018.03 1018.19 1018.35 1018.47 1018.55 1018.58 1018.57 1018.54 1018.52
1013.60 1014.17 1014.83 1015.50 1016.07 1016.45 1016.57 1016.38 1015.90 1015.17 1014.31 1013.42 1012.61 1011.99 1011.60 1011.47 1011.56 1011.82 1012.17 1012.56 1012.93 1013.25 1013.54 1013.81 1014.10 1014.44 1014.84 1015.29 1015.79 1016.28 1016.73 1017.11 1017.39 1017.57 1017.68 1017.75 1017.80 1017.88 1018.00 1018.17 1018.37 1018.59 1018.77 1018.92 1019.00 1019.03 1019.02 1018.99 1018.98
1013.93 1014.58 1015.29 1015.98 1016.55 1016.90 1016.97 1016.71 1016.15 1015.35 1014.42 1013.47 1012.62 1011.96 1011.54 1011.38 1011.44 1011.67 1012.00 1012.36 1012.71 1013.01 1013.28 1013.54 1013.81 1014.13 1014.51 1014.95 1015.43 1015.91 1016.36 1016.76 1017.07 1017.31 1017.48 1017.63 1017.77 1017.93 1018.14 1018.38 1018.64 1018.89 1019.10 1019.27 1019.36 1019.40 1019.40 1019.38 1019.37
1014.26 1014.94 1015.66 1016.34 1016.87 1017.17 1017.17 1016.86 1016.24 1015.40 1014.44 1013.48 1012.62 1011.95 1011.53 1011.35 1011.40 1011.60 1011.90 1012.22 1012.53 1012.81 1013.04 1013.27 1013.51 1013.80 1014.15 1014.56 1015.01 1015.47 1015.92 1016.33 1016.67 1016.95 1017.19 1017.40 1017.62 1017.87 1018.14 1018.44 1018.75 1019.03 1019.28 1019.45 1019.56 1019.62 1019.63 1019.63 1019.65
1014.54 1015.21 1015.90 1016.52 1016.99 1017.21 1017.14 1016.78 1016.14 1015.29 1014.35 1013.41 1012.59 1011.96 1011.55 1011.38 1011.41 1011.59 1011.85 1012.13 1012.40 1012.62 1012.82 1013.00 1013.21 1013.46 1013.76 1014.13 1014.54 1014.98 1015.41 1015.81 1016.17 1016.48 1016.77 1017.05 1017.34 1017.65 1017.98 1018.33 1018.67 1018.99 1019.25 1019.44 1019.57 1019.65 1019.69 1019.72 1019.78
1014.74 1015.36 1015.97 1016.50 1016.86 1017.00 1016.87 1016.46 1015.82 1015.01 1014.13 1013.27 1012.52 1011.95 1011.59 1011.43 1011.46 1011.62 1011.84 1012.07 1012.29 1012.47 1012.62 1012.76 1012.91 1013.11 1013.37 1013.68 1014.04 1014.43 1014.83 1015.21 1015.57 1015.91 1016.23 1016.56 1016.90 1017.26 1017.64 1018.03 1018.41 1018.74 1019.03 1019.24 1019.40 1019.50 1019.58 1019.66 1019.76
1014.84 1015.38 1015.88 1016.28 1016.52 1016.57 1016.38 1015.96 1015.35 1014.61 1013.82 1013.06 1012.42 1011.93 1011.63 1011.51 1011.54 1011.67 1011.85 1012.04 1012.20 1012.34 1012.44 1012.53 1012.64 1012.79 1012.99 1013.24 1013.54 1013.87 1014.21 1014.56 1014.91 1015.25 1015.59 1015.95 1016.34 1016.74 1017.17 1017.59 1018.00 1018.37 1018.68 1018.92 1019.11 1019.26 1019.38 1019.51 1019.66
Thickness
5808 5813 5812 5799 5775 5758 5748 5756 5765 5764 5768 5777 5780 5775 5763 5756 5747 5736 5757 5770 5772 5770 5767 5764 5763 5763 5764 5764 5764 5764 5764 5764 5764 5764 5764 5764 5764 5764 5764 5764 5764 5764 5764 5763 5763 5763 5763 5763 5763
5810 5813 5804 5786 5761 5740 5742 5757 5759 5763 5771 5779 5779 5774 5764 5756 5760 5757 5760 5768 5771 5769 5765 5762 5761 5761 5761 5761 5761 5761 5761 5761 5761 5761 5761 5761 5761 5761 5761 5761 5760 5761 5760 5760 5760 5760 5760 5760 5760
5809 5811 5790 5773 5755 5742 5743 5757 5761 5769 5777 5776 5770 5769 5759 5753 5758 5758 5763 5769 5769 5766 5763 5760 5759 5758 5758 5758 5758 5758 5757 5757 5757 5758 5758 5758 5758 5758 5758 5758 5757 5757 5757 5757 5757 5756 5756 5756 5756
5806 5796 5785 5761 5746 5754 5758 5761 5767 5767 5771 5774 5769 5758 5755 5760 5760 5763 5767 5769 5767 5764 5761 5758 5757 5756 5756 5755 5755 5754 5754 5754 5754 5755 5755 5755 5755 5756 5755 5754 5754 5754 5754 5753 5753 5753 5753 5753 5753
5801 5781 5760 5746 5747 5757 5765 5768 5768 5761 5761 5765 5763 5748 5745 5758 5764 5766 5766 5766 5764 5762 5759 5756 5755 5754 5753 5753 5752 5752 5751 5752 5752 5752 5752 5752 5753 5753 5752 5751 5750 5750 5750 5749 5749 5749 5749 5749 5749
5783 5774 5747 5736 5742 5755 5763 5768 5766 5760 5759 5762 5758 5749 5743 5757 5760 5762 5765 5763 5763 5761 5758 5755 5753 5752 5751 5751 5750 5749 5749 5749 5749 5749 5749 5749 5750 5749 5748 5747 5747 5746 5746 5745 5745 5745 5745 5745 5745
5774 5762 5746 5743 5741 5746 5757 5768 5761 5755 5754 5757 5760 5746 5743 5752 5758 5761 5762 5761 5761 5760 5757 5754 5752 5751 5750 5749 5749 5748 5747 5747 5747 5747 5747 5747 5746 5746 5745 5744 5743 5743 5742 5742 5742 5742 5742 5742 5741
5782 5765 5749 5746 5741 5741 5757 5763 5763 5758 5753 5764 5763 5744 5738 5748 5758 5759 5759 5758 5758 5758 5756 5754 5753 5751 5749 5748 5747 5747 5746 5746 5745 5745 5745 5744 5744 5743 5743 5742 5740 5740 5739 5739 5739 5738 5738 5738 5738
5785 5757 5742 5743 5742 5743 5757 5756 5759 5764 5757 5756 5757 5752 5750 5755 5756 5754 5752 5752 5752 5753 5753 5753 5752 5750 5749 5747 5746 5745 5744 5744 5744 5743 5743 5742 5742 5741 5740 5739 5738 5737 5736 5736 5736 5735 5735 5735 5735
5772 5746 5747 5757 5757 5753 5756 5755 5756 5753 5746 5745 5746 5750 5753 5753 5751 5748 5746 5745 5745 5746 5749 5751 5750 5749 5747 5746 5744 5744 5743 5742 5742 5742 5741 5741 5740 5739 5738 5736 5735 5734 5734 5733 5733 5733 5733 5733 5733
5767 5751 5756 5761 5764 5761 5754 5753 5757 5747 5737 5740 5740 5743 5747 5747 5747 5745 5744 5744 5744 5745 5746 5748 5748 5747 5746 5744 5743 5742 5742 5741 5741 5740 5740 5739 5739 5737 5736 5734 5732 5732 5731 5730 5730 5730 5730 5730 5730
5762 5758 5760 5759 5762 5757 5753 5751 5748 5743 5742 5749 5749 5748 5746 5744 5743 5742 5741 5742 5743 5742 5743 5745 5746 5745 5744 5742 5741 5740 5740 5739 5738 5738 5738 5737 5736 5735 5733 5732 5731 5730 5729 5728 5728 5727 5727 5726 5726
5755 5754 5758 5759 5757 5754 5750 5745 5742 5740 5747 5750 5749 5746 5744 5743 5743 5743 5744 5743 5741 5740 5740 5742 5743 5742 5741 5740 5739 5738 5736 5736 5736 5735 5735 5734 5733 5732 5731 5729 5728 5727 5726 5725 5724 5724 5723 5722 5722
5755 5754 5753 5754 5752 5750 5742 5740 5739 5737 5746 5745 5743 5741 5741 5740 5740 5740 5740 5739 5738 5738 5738 5740 5740 5739 5739 5737 5735 5734 5734 5732 5732 5732 5732 5731 5730 5729 5727 5726 5724 5723 5722 5721 5721 5720 5719 5718 5717
5758 5747 5744 5747 5749 5748 5743 5728 5732 5740 5743 5738 5738 5738 5737 5737 5738 5736 5737 5736 5736 5736 5737 5737 5737 5737 5736 5734 5733 5731 5731 5730 5729 5728 5728 5728 5727 5726 5724 5722 5720 5719 5719 5718 5717 5716 5715 5714 5713
5750 5738 5726 5738 5745 5746 5732 5713 5730 5740 5738 5733 5734 5734 5732 5733 5735 5736 5736 5736 5736 5735 5734 5734 5735 5734 5732 5731 5730 5729 5727 5726 5725 5724 5724 5724 5723 5722 5720 5718 5717 5716 5715 5714 5712 5710 5709 5708 5707
5736 5725 5723 5731 5743 5741 5730 5718 5729 5738 5734 5730 5731 5731 5730 5730 5733 5733 5734 5734 5733 5733 5732 5730 5731 5729 5728 5728 5727 5725 5724 5723 5721 5720 5719 5719 5719 5718 5716 5714 5713 5712 5710 5709 5708 5705 5704 5703 5702
5726 5728 5727 5726 5736 5735 5725 5722 5729 5735 5732 5729 5729 5730 5729 5728 5729 5731 5732 5731 5731 5730 5729 5727 5726 5726 5725 5724 5723 5721 5720 5718 5717 5716 5715 5714 5714 5713 5712 5711 5709 5708 5705 5703 5702 5700 5700 5699 5699
5737 5731 5724 5729 5739 5730 5723 5723 5727 5732 5730 5728 5728 5728 5728 5727 5730 5730 5729 5728 5727 5726 5724 5723 5722 5721 5719 5717 5715 5713 5712 5712 5711 5711 5710 5710 5709 5708 5707 5706 5705 5703 5700 5698 5697 5695 5694 5694 5695
5733 5725 5723 5729 5738 5730 5722 5723 5730 5731 5729 5728 5727 5726 5727 5726 5726 5724 5724 5723 5722 5720 5719 5718 5717 5716 5714 5712 5711 5710 5709 5708 5707 5706 5705 5705 5704 5704 5703 5701 5700 5698 5696 5694 5692 5690 5687 5687 5689
5726 5722 5722 5721 5728 5730 5721 5714 5724 5730 5732 5730 5729 5729 5728 5725 5722 5721 5720 5718 5717 5715 5714 5714 5712 5711 5710 5709 5707 5705 5703 5702 5700 5699 5699 5700 5699 5698 5698 5697 5696 5694 5692 5689 5688 5686 5683 5680 5681
5717 5729 5727 5721 5712 5710 5717 5696 5715 5724 5722 5723 5724 5724 5724 5724 5722 5719 5717 5714 5713 5711 5711 5710 5708 5707 5706 5704 5701 5698 5694 5692 5693 5693 5694 5694 5694 5693 5692 5691 5690 5689 5688 5685 5684 5682 5680 5677 5674
5721 5730 5726 5721 5714 5708 5715 5704 5708 5722 5713 5717 5721 5722 5722 5721 5719 5716 5714 5711 5710 5708 5706 5705 5703 5701 5700 5699 5696 5694 5690 5689 5689 5689 5689 5689 5689 5688 5687 5686 5685 5684 5683 5681 5679 5677 5675 5673 5671
5726 5722 5721 5720 5710 5693 5710 5704 5698 5712 5716 5717 5720 5721 5720 5719 5716 5713 5711 5708 5705 5702 5701 5700 5697 5695 5694 5693 5692 5689 5686 5684 5683 5682 5681 5681 5681 5682 5682 5681 5680 5679 5678 5677 5675 5673 5671 5669 5667
5718 5703 5690 5687 5686 5692 5716 5705 5703 5719 5725 5722 5718 5717 5718 5716 5711 5707 5703 5700 5698 5695 5694 5693 5691 5688 5688 5687 5686 5684 5682 5680 5677 5676 5675 5674 5674 5674 5675 5675 5674 5673 5673 5671 5670 5668 5666 5664 5662
5710 5703 5682 5674 5681 5694 5707 5697 5705 5722 5725 5724 5720 5716 5714 5710 5707 5703 5699 5695 5693 5690 5687 5687 5684 5683 5682 5681 5680 5679 5677 5674 5673 5672 5670 5669 5669 5669 5669 5669 5668 5667 5666 5666 5664 5662 5661 5659 5657
5703 5702 5707 5692 5691 5686 5696 5703 5704 5715 5715 5714 5711 5708 5705 5704 5702 5699 5695 5692 5689 5686 5683 5682 5679 5677 5676 5675 5674 5673 5671 5670 5668 5667 5666 5664 5664 5665 5664 5663 5662 5661 5660 5659 5658 5656 5654 5653 5652
5710 5705 5696 5685 5673 5670 5686 5692 5691 5696 5700 5703 5701 5699 5699 5698 5696 5693 5690 5688 5685 5683 5680 5677 5674 5671 5670 5669 5668 5667 5665 5664 5662 5661 5659 5658 5658 5658 5657 5657 5656 5654 5653 5652 5651 5649 5649 5647 5645
5699 5696 5693 5687 5685 5669 5664 5677 5703 5699 5700 5697 5696 5696 5694 5692 5689 5687 5685 5683 5681 5678 5675 5671 5669 5666 5663 5662 5661 5659 5658 5656 5655 5653 5652 5651 5651 5651 5650 5649 5648 5647 5646 5645 5643 5642 5641 5640 5638
5699 5693 5687 5671 5671 5677 5667 5671 5706 5703 5700 5696 5693 5692 5691 5688 5685 5683 5680 5676 5673 5670 5668 5666 5663 5660 5657 5656 5654 5652 5650 5648 5646 5645 5645 5645 5644 5644 5643 5642 5640 5639 5637 5636 5635 5633 5633 5632 5630